User: anonymous   Login
Location: Chenango Forks
(42.2242°N, 75.8278°W)
Time: 19:13:59
(UTC-05:00)
Language:

Okean 3 Rocket - Orbit

View from above orbital plane
View from above orbital plane
View from above satellite
View from above satellite

Ground track
Ground track

The orbit data is extracted from the following two-line orbital elements,

1 21398U 91039B   15032.22184162  .00000404  00000-0  50853-4 0  9681
2 21398 082.5257 313.0846 0022822 141.4319 018.7972 14.79368392275716
Epoch (UTC): 01 February 2015 05:19:27
Eccentricity: 0.0022822
inclination: 82.5257°
perigee height: 615 km
apogee height: 647 km
right ascension of ascending node: 313.0846°
argument of perigee: 141.4319°
revolutions per day: 14.79368392
mean anomaly at epoch: 18.7972°
orbit number at epoch: 27571

The dashed part of the orbit path shows where the satellite is in the earth's shadow,  

DLR